Hovedside
METAR-TAF:

METAR-TAF

Lufthavner :

Skövde, Sverige

breddegrad: 58-27N, lengdegrad: 013-58E, høyde over havet: 98 m

Gjeldene værobservasjon

Denne rapporten ble laget for 36 minutter siden, klokken 13:50 UTC
Vind 7 kt fra Vest
Temperatur 19°C
Luftfuktighet 78%
Trykk 1014 hPa
Sikt: 7000 m
regn

METAR: ESGR 181350Z AUTO 26007KT 7000 RA OVC094/// 19/15 Q1014

Tid: 16:26 (14:26 UTC)


TAF: fraværende

Værobservasjoner og værvarsel for over 4000 flyplasser (METAR- og TAF-rapporter).

Tilgjengelige stasjoner er representert av de røde og gule prikkene på kartet.

Hold musepekeren over prikken for å se navnet på stasjonen.

Klikk så for å se værobservasjoner og -varsler.

For å forandre kartet kan du klikke på den grønne knappen med svart kryss for å zoome inn, på den grønne knappen med strek for å zoome ut, eller på de grønne pilene for å se tilstøtende kart.


METAR-TAF: